Regional Weather Roundup
Issued by NWS Sterling, VA

Home | Current Version | Previous Version | Text Only | Print | Product List | Glossary Off
Versions: 1 2 3 4 5 6 7 8 9 10 11 12 13 14 15 16 17 18 19 20 21 22 23 24 25 26 27 28 29 30 31 32 33 34 35 36 37 38 39 40 41 42 43 44 45 46 47 48 49 50

000
ASUS41 KLWX 270910
RWRLWX

REGIONAL WEATHER ROUNDUP
NATIONAL WEATHER SERVICE BALTIMORE MD/WASHINGTON DC
500 AM EDT MON MAR 27 2017

Note: "FAIR" indicates few or no clouds below 12,000 feet
with no significant weather and/or obstructions to visibility.
 TC=TEMPERATURE CELSIUS

 * =Non NWS site. Station does not report precipitation (e.g. rain,
    snow, etc.), thunder, or fog.

DCZ001-MDZ009-015-VAZ040>042-051-053>054-271000-
WASHINGTON METRO

CITY           SKY/WX    TMP DP  RH WIND       PRES   REMARKS
WASHINGTON NAT CLOUDY    47  46  97 E3        30.11F FOG
DULLES         DRZL/FOG  46  45  96 CALM      30.10S VSB 1/2
ANDREWS AFB    FOG       45  45  99 CALM      30.09F VSB 1/2
FT BELVOIR     CLOUDY    46  45  96 CALM      30.10F FOG
QUANTICO       FOG       48  48 100 E6        30.11F VSB 1/2
COLLEGE PARK*  CLOUDY    45  43  93 CALM      30.10F
LEESBURG*      FOG       46  46 100 CALM      30.11S VSB 1/2
MANASSAS*      FOG       46  46 100 CALM      30.10F VSB 1/2

$$

MDZ006>007-011-014-271000-
BALTIMORE METRO

CITY           SKY/WX    TMP DP  RH WIND       PRES   REMARKS
BWI AIRPORT    DRZL/FOG  44  44 100 E3        30.10F VSB 1/4
MD SCIENCE CTR   N/A     45  43  93 MISG      30.11F
MARTIN STATE   FOG       45  45 100 CALM      30.12F VSB 3/4
ANNAPOLIS      FOG       47  46  97 E3        30.10F VSB 1/2
FORT MEADE*    CLOUDY    43  43 100 CALM      30.13S VSB 3/4

$$

MDZ012-015-019>023-271000-
MARYLAND EASTERN SHORE

CITY           SKY/WX    TMP DP  RH WIND       PRES   REMARKS
OCEAN CITY     PTCLDY    43  43 100 CALM      30.14S FOG
SALISBURY      PTCLDY    47  47 100 SE5       30.12S
BAY BRIDGE AP* FOG       46  46 100 SE5       30.11S VSB 1/2
CAMBRIDGE*     FOG       48  46  93 SE6       30.10F VSB 3/4
EASTON*        CLOUDY    47  46  95 SE3       30.13F FOG

$$

MDZ017>025-271000-
SOUTHERN MARYLAND

CITY           SKY/WX    TMP DP  RH WIND       PRES   REMARKS
PATUXENT RIVER CLOUDY    47  47 100 SE5       30.10F FOG
ST INIGOES     CLOUDY    49  48  97 E5        30.09F
LEONARDTOWN*   CLOUDY    48  46  93 SE5       30.11S

$$

MDZ003>005-271000-
NORTH CENTRAL MARYLAND

CITY           SKY/WX    TMP DP  RH WIND       PRES   REMARKS
FREDERICK*     CLOUDY    46  46 100 CALM      30.14R FOG
HAGERSTOWN APT LGT RAIN  46  45  96 S7        30.07F FOG
WESTMINSTER*   LGT RAIN  43  43 100 CALM      30.10R VSB 1/2

$$

MDZ501>502-271000-
WESTERN MARYLAND

CITY           SKY/WX    TMP DP  RH WIND       PRES   REMARKS
OAKLAND*       CLOUDY    46  46 100 S8        29.99S FOG
CUMBERLAND*    CLOUDY    46  46 100 CALM      30.08F

$$

VAZ025>031-271000-
SHENANDOAH VALLEY

CITY           SKY/WX    TMP DP  RH WIND       PRES   REMARKS
WINCHESTER*    LGT RAIN  45  45 100 E8        30.06F
FRONT ROYAL*   CLOUDY    46  46 100 N6        30.08R
LURAY*         LGT RAIN  50  50 100 CALM      30.05S
NEW MARKET*    CLOUDY    48  47  96 CALM      30.05S
STAUNTON*      CLOUDY    50  49  95 CALM      30.07S
WAYNESBORO*    CLOUDY    56  55  95 S6        30.05F

$$

WVZ021-048>050-054>055-271000-
EASTERN WEST VIRGINIA PANHANDLE

CITY           SKY/WX    TMP DP  RH WIND       PRES   REMARKS
MARTINSBURG    LGT RAIN  45  45 100 CALM      30.05F FOG
PETERSBURG*    CLOUDY    49  47  96 CALM      30.04F

$$

VAZ036>039-050-271000-
CENTRAL FOOTHILLS

CITY           SKY/WX    TMP DP  RH WIND       PRES   REMARKS
CHARLOTTESVILL FOG       50  49  96 CALM      30.08F VSB 1
CULPEPER*      FOG       49  49 100 CALM      30.10F VSB 1/2
ORANGE*        FOG       46  46 100 CALM      30.11S VSB 1/2
GORDONSVILLE*  FOG       48  48 100 CALM      30.08F VSB 1
WARRENTON*     FOG       48  46  91 CALM      30.08F VSB 1/2

$$

VAZ055>057-271000-
NORTH AND CENTRAL PIEDMONT

CITY           SKY/WX    TMP DP  RH WIND       PRES   REMARKS
FREDERICKSBRG* FOG       49  49 100 CALM      30.09S VSB 1/2
STAFFORD*      FOG       47  47 100 CALM      30.13F VSB 1/4

$$

NCZ024-NYZ072-PAZ021-071-VAZ022-071-271000-
OTHER REGIONAL OBSERVATIONS

CITY           SKY/WX    TMP DP  RH WIND       PRES   REMARKS
NEW YORK CITY  LGT RAIN  38  37  97 NE8       30.20F FOG
PHILADELPHIA   FOG       42  41  96 E8        30.14F VSB 3/4
PITTSBURGH     CLOUDY    55  55 100 S3        29.93F
ROANOKE        CLOUDY    54  54 100 SE7       30.09F
RICHMOND       MOCLDY    54  53  97 SE3       30.09F
RALEIGH        CLOUDY    62  54  74 SW7       30.11S

$$

ANZ530>537-271000-
MARINE OBSERVATIONS

STATION/POSITION TIME  TEMP    WIND        PRES
                       AIR SEA DIR/SP/G
                 (UTC) (F)     (DEG/KT/KT) (MB)
THOMAS PT LIGHT  0900   45 45  110/  6/  6   N/A
BALT KEY BRIDGE  0848   44      80/  5/  5 1019.6F
COVE POINT       0842   46     190/  9/ 10 1019.7F
LEWISETTA        0842   49 50  140/  4/  5 1018.9F
SOLOMONS ISLAND  0842   47 47  120/  5/  7   N/A
PINEY POINT      0848          140/  7/  8   N/A

$$




USA.gov is the U.S. government's official web portal to all federal, state and local government web resources and services.